Regional Weather Roundup
Issued by NWS

Home | Current Version | Previous Version | Text Only | Print | Product List | Glossary On
Versions: 1 2 3 4 5 6 7 8 9 10 11 12 13 14 15 16 17 18 19 20 21 22 23 24 25 26 27 28
000
ASPQ40 PGUM 202312
RWRPQ
WEATHER ROUNDUP FOR THE MARIANAS AND MICRONESIA
NATIONAL WEATHER SERVICE TIYAN GU
900 AM CHST SUN JAN 21 2018

GUZ001>004-210000-
MARIANA ISLANDS-

CITY           SKY/WX    TMP DP  RH WIND       PRES   REMARKS
GUAM AIRPORT   SUNNY     82  75  78 NE13      29.87R
ANDERSEN AFB   MOSUNNY   81  72  74 NE16      29.88R
ROTA AIRPORT   PTSUNNY   79  73  83 NE10      29.88R
TINIAN AP      PTSUNNY   77  73  88 NE10      29.87R
SAIPAN AP      MOSUNNY   82  75  78 NE16      29.88R

$$

PMZ161-210000-
REPUBLIC OF PALAU-

CITY           SKY/WX    TMP DP  RH WIND       PRES   REMARKS
KOROR AP       PTSUNNY   82  75  78 E8G17     29.76R
KOROR WSO      PTSUNNY   84  75  74 E9        29.77R HX  92

$$

PMZ171>174-210000-
FEDERATED STATES OF MICRONESIA-

CITY           SKY/WX    TMP DP  RH WIND       PRES   REMARKS
YAP AIRPORT    PTSUNNY   82  77  83 E9        29.77R HX  91
CHUUK AP       PTSUNNY   84  79  84 VRB6      29.77R HX  96
POHNPEI AP     CLOUDY    81  79  94 N3        29.80R
POHNPEI WSO    CLOUDY    81  79  94 N3        29.83S
KOSRAE AP      CLOUDY    82  75  78 E5        29.76

$$

PMZ181-210000-
REPUBLIC OF THE MARSHALL ISLANDS-

CITY           SKY/WX    TMP DP  RH WIND       PRES   REMARKS
KWAJALEIN AP   HVY RAIN  81  77  89 SE20G26   29.82R
MAJURO AP      PTSUNNY   84  77  79 SE9       29.78F HX  94
MAJURO WSO     PTSUNNY   84  77  79 SE8       29.77F HX  94

$$





USA.gov is the U.S. government's official web portal to all federal, state and local government web resources and services.